Theta_e
288 288 289 291 290 290 289 289 287 287 286 285 282 280 282 284 283 282 288 294 294 295 298 298 297 298 297 296 296 297 297 297 296 295 294 294 294 294 295 295 295 296 296 297 297 298 298 298 298 299 300 301 301 302 304 305 306 308 310 312 314 316 317 317 316 316 316 316 316 317 318 318 319 319 319 319 319 319 319 318 317 317 316 314 312 310 309
287 287 288 289 290 286 289 289 289 290 290 287 287 286 284 284 282 287 294 295 292 293 295 296 296 296 296 295 296 296 294 294 294 293 293 293 293 293 294 294 294 295 295 296 297 297 297 297 297 298 299 300 301 301 302 304 305 307 309 311 312 313 314 315 316 317 317 316 317 318 318 318 318 318 318 318 318 318 317 317 315 314 313 312 311 310 308
284 286 288 289 288 289 288 289 290 291 292 292 293 292 292 293 293 294 293 290 288 292 294 293 295 295 295 294 293 293 293 293 293 292 292 292 292 293 293 294 294 294 295 295 296 296 296 297 297 297 298 299 300 301 302 303 304 306 308 309 310 311 312 313 314 316 317 317 317 317 316 316 316 317 317 317 317 315 314 314 313 313 311 310 308 308 307
279 284 285 286 287 288 287 287 288 289 290 288 288 287 290 291 290 292 291 288 286 290 293 293 294 293 292 291 291 291 291 292 292 291 291 291 292 292 293 293 293 293 294 294 294 295 295 296 297 297 297 298 299 300 301 302 303 305 306 307 308 310 311 312 313 313 314 315 316 316 315 314 315 315 315 315 313 312 312 311 311 310 308 307 306 306 305
278 284 284 282 279 285 283 282 286 290 291 292 292 292 293 293 295 290 288 290 290 291 292 290 290 290 290 290 290 290 291 291 291 291 291 292 292 292 292 293 293 293 293 294 294 295 295 296 296 297 298 298 298 299 300 301 303 303 304 305 305 307 309 311 312 312 312 313 314 314 314 314 314 314 313 312 312 311 310 310 309 308 306 306 305 305 305
283 281 282 281 279 275 278 288 292 292 290 290 288 287 289 289 292 289 291 289 290 291 290 289 288 288 288 289 290 292 291 290 291 291 292 292 293 293 293 293 293 293 293 294 294 295 295 296 297 298 299 298 299 300 300 301 301 301 302 303 303 304 306 308 310 311 311 312 312 312 313 313 313 312 311 309 309 308 308 307 306 305 304 304 304 304 304
283 279 280 278 273 274 288 294 294 294 293 291 289 290 290 290 290 290 290 290 289 289 289 289 289 289 290 291 290 291 292 292 291 291 291 292 292 292 293 293 293 293 293 293 294 294 295 296 297 297 298 298 299 298 299 299 299 300 300 301 301 302 303 305 308 310 311 311 311 312 312 312 311 310 309 308 306 305 305 305 304 303 303 303 303 303 303
281 281 277 274 270 282 291 293 293 295 294 291 291 288 290 291 291 290 288 288 288 288 288 289 290 289 290 290 291 291 292 292 292 291 291 292 292 292 293 293 293 293 293 293 293 294 296 296 296 297 297 298 298 298 298 298 298 299 299 299 300 301 301 302 305 308 310 310 310 311 311 310 309 307 306 305 304 304 303 302 303 303 302 302 301 301 301
279 280 279 279 285 286 288 288 288 287 286 286 286 284 286 291 292 290 287 287 288 288 288 289 289 290 290 287 288 291 292 292 292 292 292 292 293 293 293 294 294 294 295 294 295 295 295 296 296 296 297 298 298 297 297 297 298 298 298 298 298 299 299 300 302 305 308 310 309 309 308 307 306 304 303 302 302 303 301 301 300 300 300 300 300 300 301
280 281 279 281 280 279 284 288 291 291 290 290 290 289 285 291 291 291 289 287 287 287 288 288 289 290 289 284 284 289 291 292 292 293 293 293 293 294 294 294 294 294 295 295 296 295 295 295 296 296 297 298 297 296 296 296 296 296 296 297 298 298 299 299 301 302 305 307 308 308 307 306 304 303 303 302 301 301 300 299 298 298 299 299 299 300 299
278 276 277 278 277 280 284 287 290 292 291 290 289 286 284 290 291 291 290 288 288 287 287 288 289 288 286 284 284 289 291 292 293 291 291 293 293 294 294 294 294 294 295 296 296 296 295 295 295 296 297 297 296 295 295 295 295 295 295 296 297 298 298 299 300 301 303 305 307 307 306 305 304 303 302 301 301 300 299 299 298 299 299 297 297 298 298
273 274 271 274 276 280 286 288 288 290 291 290 287 280 281 288 291 291 290 289 288 289 289 289 289 287 286 284 285 290 291 292 292 292 292 292 293 293 295 295 295 296 296 296 295 295 294 294 296 296 297 296 296 295 294 294 293 294 295 295 296 297 298 299 299 300 302 303 305 306 305 304 304 303 302 302 301 300 299 299 298 298 297 297 295 295 296
274 277 274 275 275 283 287 288 290 291 291 289 280 276 282 290 291 292 291 290 290 291 290 290 285 285 288 288 289 290 291 291 291 292 293 293 293 293 294 294 295 295 295 295 295 295 295 295 295 296 296 295 294 295 294 293 293 293 295 295 296 296 297 297 298 299 300 301 303 304 305 303 302 302 301 300 300 299 298 298 297 297 296 296 295 295 295
273 272 276 273 271 277 287 289 290 291 290 283 283 288 291 292 291 293 292 291 291 291 289 287 286 287 289 290 290 290 291 291 291 292 293 293 293 294 294 295 295 294 295 295 295 295 296 296 295 295 295 295 294 294 293 293 293 294 294 294 295 295 295 295 296 297 297 299 301 303 304 303 301 300 300 300 299 298 298 297 296 296 295 295 295 294 294
273 268 273 272 273 279 286 288 290 291 286 286 289 291 291 292 292 292 291 291 289 289 287 288 288 288 288 289 289 290 290 290 290 291 292 291 292 293 294 294 295 295 293 294 294 294 295 296 296 295 295 294 293 293 292 292 293 294 294 294 294 294 294 294 295 295 296 297 298 300 301 302 301 300 300 300 299 298 297 296 296 295 295 295 294 294 294
273 268 271 274 278 284 288 288 285 287 290 292 291 291 288 290 291 290 289 289 289 289 288 287 287 287 287 288 289 290 291 291 292 292 292 293 293 294 294 295 294 294 293 293 293 294 295 295 295 295 295 294 293 292 292 293 293 293 293 293 293 293 293 293 293 294 294 295 296 297 299 300 300 299 299 299 298 298 297 296 295 294 294 294 294 293 293
273 272 276 284 286 287 291 291 290 290 292 292 291 291 290 289 289 290 289 288 289 289 289 289 288 287 288 289 290 289 290 290 291 291 292 292 293 293 293 293 294 294 293 292 293 293 293 294 294 295 295 294 293 292 293 294 292 292 293 293 292 292 291 292 292 293 293 293 294 295 295 296 297 298 297 298 296 297 296 295 295 294 294 294 293 293 293
286 288 288 290 290 290 290 291 291 290 290 291 291 290 288 288 289 289 288 289 289 290 290 289 288 288 289 289 289 290 290 290 290 292 292 293 293 293 294 293 293 293 293 292 292 292 292 293 293 294 294 294 293 293 294 293 292 292 292 292 292 291 291 291 291 292 292 291 292 293 294 294 294 295 295 295 295 295 295 294 294 293 293 293 293 292 292
283 279 287 287 287 289 289 289 290 291 291 290 290 289 289 289 290 290 290 290 290 290 290 289 289 289 289 289 289 290 290 290 290 291 292 292 292 293 293 293 293 292 292 292 292 292 291 292 292 293 293 294 294 294 293 293 293 293 292 292 291 291 291 291 291 291 291 291 291 291 292 293 293 293 293 293 292 292 293 293 293 292 292 292 292 292 292
281 281 285 288 289 289 290 290 288 288 289 290 290 290 290 290 291 291 291 291 290 291 290 290 289 289 290 289 289 290 290 291 291 292 292 292 292 293 293 293 293 292 291 291 291 291 291 291 291 292 293 293 294 294 295 294 293 293 292 292 291 291 291 291 291 291 290 288 290 291 290 290 290 291 292 291 290 290 290 291 292 291 291 291 291 291 291
284 286 288 288 288 288 288 289 289 290 289 289 289 290 290 290 290 290 291 291 290 290 290 290 290 289 290 290 290 291 291 291 292 292 292 292 292 292 293 292 292 291 291 291 291 291 290 290 291 291 291 292 293 293 294 295 293 292 292 291 291 291 291 291 290 291 291 290 290 291 290 290 289 289 290 291 291 290 291 290 291 292 292 291 291 291 292
280 281 283 288 284 281 284 287 289 289 290 290 289 290 290 290 289 290 289 290 291 291 291 291 291 289 290 291 291 291 292 292 292 291 291 290 290 290 291 291 290 291 291 291 290 290 290 291 291 291 290 291 292 292 293 293 293 293 292 291 291 290 290 290 290 290 290 290 291 291 290 290 290 290 288 289 289 290 289 289 289 288 289 289 290 290 291
281 286 289 289 288 287 287 288 290 291 291 290 289 289 289 290 291 290 290 289 290 290 291 292 291 291 291 291 291 290 290 290 290 289 290 288 289 289 290 289 289 289 289 290 290 289 289 290 290 290 290 291 291 291 292 292 293 292 292 291 290 290 290 289 289 289 290 289 289 289 290 290 290 289 290 290 289 288 289 289 289 288 288 288 288 288 289
287 289 289 290 288 286 288 290 290 290 292 291 290 291 291 291 291 291 290 290 289 290 290 291 291 291 290 289 289 289 287 287 288 287 287 287 287 287 287 287 287 287 287 287 287 287 287 288 289 289 289 289 289 290 290 291 292 291 291 291 290 289 289 289 289 289 289 289 289 289 288 289 289 289 289 289 290 289 289 289 289 289 288 288 288 288 289
286 290 290 290 290 290 291 291 292 292 293 292 290 290 290 290 291 292 291 291 291 290 290 289 288 288 289 288 287 287 286 286 287 286 287 287 286 286 286 286 286 285 285 285 285 286 287 288 288 289 289 288 288 288 288 289 290 290 289 289 289 289 289 289 289 288 288 288 288 288 288 287 287 288 287 287 287 288 289 289 289 289 288 288 288 288 289
291 290 291 291 291 291 291 291 291 291 291 292 291 291 293 293 292 292 291 290 289 288 287 286 285 285 286 285 284 285 286 286 286 286 285 286 286 286 286 285 285 286 285 285 285 286 287 287 288 289 289 288 288 287 287 288 288 288 288 287 287 287 288 288 289 288 288 288 288 288 287 287 287 286 285 286 286 285 286 287 288 288 288 288 288 288 288
292 292 291 289 288 289 290 288 288 290 290 291 291 290 291 291 291 289 287 287 286 286 286 285 284 283 283 283 284 284 285 284 284 284 284 284 284 283 284 284 285 286 286 286 287 286 287 288 288 288 288 288 288 287 286 287 287 287 287 287 287 286 285 286 287 287 287 287 287 287 288 287 287 287 286 286 286 286 286 286 285 285 285 287 288 288 287
291 292 291 286 286 287 289 290 290 289 290 289 289 288 287 288 287 287 286 285 285 284 284 284 285 284 284 283 283 282 283 283 283 281 283 282 281 281 282 284 285 285 286 286 285 286 287 287 288 288 288 288 287 287 287 287 287 286 286 286 286 285 285 285 285 285 285 286 287 288 287 287 286 286 286 286 286 286 285 285 285 285 286 286 287 288 288
291 291 291 290 289 289 290 290 289 288 287 287 287 286 286 286 286 286 285 285 284 284 284 283 283 283 284 282 283 283 282 282 282 281 281 280 280 279 280 282 282 284 285 285 285 285 286 287 287 288 288 287 287 287 287 287 287 287 286 286 285 285 285 285 284 285 285 285 285 285 285 286 287 287 287 287 286 286 286 285 284 285 285 285 287 288 288
290 290 290 290 290 290 289 288 287 286 286 285 285 285 285 285 284 284 284 283 284 285 282 282 283 283 282 282 282 283 283 281 281 280 280 279 279 279 279 281 284 284 285 285 284 283 284 284 286 286 286 286 286 286 287 287 287 286 286 285 284 284 284 284 285 286 285 285 284 284 285 286 286 286 286 285 285 285 285 284 284 284 285 285 286 285 286
288 289 289 289 288 288 287 286 286 285 285 285 285 284 283 284 283 283 282 282 283 282 281 282 282 281 281 281 280 281 281 280 279 278 278 279 279 279 278 278 283 284 285 285 285 283 283 284 285 286 285 285 286 286 288 287 287 286 286 285 284 282 282 282 283 284 284 284 284 285 285 285 284 285 284 284 285 285 285 284 284 284 284 285 285 285 286
287 287 287 287 287 286 285 285 285 285 285 285 285 284 284 284 283 282 282 283 282 282 281 281 282 281 280 280 281 280 279 278 278 278 279 279 279 279 278 279 279 280 281 282 282 283 283 284 286 286 284 285 286 287 287 287 287 287 285 284 284 283 283 282 284 284 283 283 284 284 283 284 284 284 284 284 284 283 283 284 284 284 284 284 285 285 285
285 284 284 284 285 285 284 284 285 284 284 284 284 283 281 282 283 283 282 282 281 281 282 281 280 280 280 280 279 279 279 279 279 279 279 279 279 279 278 278 279 280 282 282 282 282 283 286 286 284 285 285 286 286 287 287 287 286 285 284 284 284 283 283 283 283 284 284 284 283 284 283 283 283 284 283 283 282 282 282 283 283 284 284 285 285 285
286 285 285 285 286 285 284 283 283 283 282 281 281 282 283 283 283 282 282 281 282 281 282 281 280 280 280 279 278 277 277 278 278 278 279 279 278 277 276 277 279 281 282 281 282 282 282 282 282 283 285 285 286 286 286 286 286 286 286 285 285 285 285 284 283 284 284 283 282 282 282 282 284 284 283 282 283 282 282 282 282 282 283 284 285 285 285
287 286 286 286 286 286 286 285 284 284 283 283 282 282 282 282 282 282 281 282 282 281 281 280 279 279 278 277 275 271 271 274 274 276 278 274 272 271 273 277 280 281 282 284 283 283 283 284 284 283 284 285 285 285 285 285 285 286 286 287 287 286 285 283 284 283 283 284 283 283 282 283 282 281 281 283 283 283 282 282 282 282 283 283 284 284 284
286 285 285 284 285 286 285 285 285 284 284 283 283 282 282 281 281 281 282 281 280 280 280 278 277 277 277 274 270 268 269 269 270 270 271 271 268 271 274 278 280 281 282 286 285 283 283 284 284 285 284 284 284 284 282 283 284 284 284 285 285 285 285 285 285 284 284 284 284 283 282 282 282 281 282 282 283 283 283 283 283 282 283 282 283 283 283
287 287 285 284 283 284 284 284 284 284 283 283 283 282 282 280 281 280 280 281 280 280 278 278 278 276 273 270 268 266 267 267 265 267 270 267 269 273 276 277 278 279 281 284 285 282 282 283 284 284 284 284 284 283 281 280 283 283 284 285 285 286 286 285 285 287 287 285 284 283 281 282 283 284 282 284 283 282 282 282 283 283 283 282 282 283 283
285 286 286 285 284 284 284 283 284 284 283 283 282 282 282 282 280 281 281 281 280 278 278 278 278 275 272 272 270 271 272 267 266 266 267 270 274 277 276 277 278 277 280 280 280 280 282 282 284 284 285 284 284 283 281 278 280 282 283 284 284 284 284 285 285 286 287 286 284 284 284 284 284 284 284 283 283 283 282 282 282 282 283 283 282 283 283
283 283 284 284 284 284 283 283 283 283 285 285 283 282 281 281 280 280 280 280 279 278 278 278 277 277 277 278 278 278 278 274 268 269 271 273 274 279 277 277 277 277 280 279 277 280 281 282 283 284 284 283 284 283 279 278 279 282 283 283 283 284 285 285 286 287 288 287 285 286 286 286 285 286 285 285 284 283 282 283 283 282 284 284 284 284 283
283 284 284 284 284 284 284 284 283 284 284 285 285 284 282 281 281 281 280 280 279 279 278 278 279 279 278 278 278 279 279 278 276 273 273 275 278 278 278 280 279 279 279 279 279 280 280 282 283 283 283 282 283 283 280 278 279 282 283 284 284 284 284 286 287 288 287 286 286 286 287 288 288 287 286 284 284 283 283 283 284 284 285 285 285 285 284
285 284 284 285 284 284 284 284 284 283 283 284 284 284 283 283 281 281 281 281 280 279 278 279 280 279 278 279 279 280 280 278 278 278 277 279 281 279 278 277 280 280 279 279 280 280 280 281 283 284 283 283 282 283 283 280 281 284 285 285 284 284 285 285 286 286 286 286 286 287 288 287 287 287 287 287 286 284 284 284 284 285 286 286 286 286 285
284 284 284 284 284 284 284 284 284 283 283 283 283 283 283 283 283 283 282 281 281 280 279 279 280 280 280 279 280 280 281 280 279 278 279 280 281 279 278 279 280 279 279 279 280 280 281 282 282 283 283 283 282 283 284 284 283 284 285 285 285 285 285 285 285 286 285 285 285 285 286 287 288 287 287 287 287 286 285 285 284 284 285 285 286 286 286
285 285 285 285 284 284 284 284 285 285 284 283 283 283 283 283 283 282 282 281 282 281 280 280 280 281 281 280 280 281 280 281 280 279 279 280 280 280 282 283 281 280 281 280 281 281 282 282 283 283 283 283 283 283 284 284 284 284 284 284 284 284 284 284 285 285 284 285 285 285 286 287 288 288 287 287 287 287 286 286 286 286 285 285 285 286 286
285 286 286 285 285 285 284 284 283 284 284 284 284 283 283 283 284 284 283 283 282 282 282 281 281 281 281 281 281 281 282 281 281 281 280 281 282 282 282 282 283 282 282 282 282 282 282 283 283 283 283 283 283 283 284 284 284 284 284 284 284 284 284 284 284 284 285 285 285 285 286 286 286 286 287 287 287 287 286 287 287 287 286 285 285 285 286
285 286 286 286 285 284 284 284 285 286 286 284 284 283 284 284 284 284 284 284 284 283 282 283 282 282 282 282 283 284 284 284 283 281 282 282 283 284 282 282 283 282 282 282 282 283 283 283 283 283 283 283 283 283 284 284 285 285 285 285 284 284 284 284 285 285 284 284 285 285 286 286 287 286 286 286 286 286 286 286 286 286 286 286 286 286 286
285 285 285 284 285 285 286 286 286 285 284 284 283 283 283 284 284 283 283 284 284 284 284 284 284 284 284 284 284 284 284 283 282 283 285 285 285 285 282 281 281 281 282 282 282 283 283 282 282 283 283 283 283 283 284 284 284 284 285 285 285 284 285 285 285 284 285 285 285 286 287 287 287 287 287 287 287 286 286 285 285 286 286 287 287 286 286
285 284 285 286 286 285 284 284 284 285 284 284 284 284 284 283 284 284 284 285 285 285 284 284 285 285 285 286 286 285 284 284 285 284 284 284 284 284 283 283 282 282 282 283 283 284 283 283 283 282 283 283 283 283 283 284 284 284 284 285 285 285 285 285 285 285 285 285 285 285 285 286 286 286 286 286 286 285 285 285 286 286 286 286 285 285 285
285 285 285 285 285 284 283 284 285 285 285 287 286 285 283 282 283 284 283 283 284 283 283 283 284 283 283 284 285 286 286 286 285 286 284 284 285 284 284 283 284 282 283 282 283 283 283 283 283 283 283 283 283 283 283 283 284 284 285 285 285 285 285 285 284 284 284 284 284 285 286 286 286 286 286 287 287 286 285 285 286 286 286 286 286 286 286
286 286 285 284 284 284 285 285 285 284 285 283 283 284 282 283 283 283 283 283 284 284 284 284 283 284 284 284 285 285 285 285 287 287 283 283 284 284 283 283 283 282 283 283 284 283 283 283 283 283 283 283 283 283 283 283 284 284 284 285 285 286 285 285 285 284 284 285 285 285 285 286 286 286 287 287 286 287 286 286 286 286 286 286 286 285 286
285 285 284 284 284 284 284 284 283 285 285 283 284 283 282 284 284 284 283 283 283 282 283 284 284 283 282 282 282 283 283 284 284 285 284 283 282 282 282 283 282 283 283 283 284 283 282 283 282 282 282 283 283 283 283 283 284 284 284 284 284 285 284 284 283 283 284 284 285 284 285 285 286 285 285 285 285 286 286 286 286 285 284 285 285 286 286
285 285 285 285 286 286 286 287 287 285 284 285 284 282 284 285 284 284 284 283 284 284 284 285 284 283 282 283 282 282 282 281 283 284 284 283 283 283 282 282 282 283 283 282 282 282 280 281 281 281 282 283 283 283 283 283 283 283 283 284 284 284 284 284 283 284 284 284 284 285 285 285 285 286 285 285 285 285 286 285 285 285 284 285 285 286 286
287 287 286 285 284 284 283 284 284 284 284 283 283 283 283 282 282 282 282 283 284 284 285 285 286 285 281 280 281 281 281 282 282 282 282 282 283 283 283 283 282 282 283 283 282 282 282 281 282 282 283 282 281 281 282 283 283 282 283 283 283 284 283 284 283 284 284 285 285 285 285 285 285 285 285 286 285 285 285 284 284 283 283 283 284 283 284
Wind_Speed
5 5 3 7 10 7 6 7 4 5 3 3 6 4 2 5 8 9 9 8 12 12 11 9 8 8 8 10 8 7 7 6 6 7 8 7 7 7 9 9 9 10 10 9 9 10 10 12 12 12 10 10 9 9 9 10 10 11 10 9 9 8 7 8 8 5 3 1 1 2 3 4 5 6 5 5 5 3 6 5 3 1 4 4 7 7 6
8 9 6 2 12 3 8 10 9 8 9 7 5 5 2 1 1 5 15 10 7 4 6 10 8 8 8 8 8 8 7 6 6 8 7 7 8 8 9 8 9 8 9 9 10 11 12 12 12 11 11 11 11 11 11 11 11 11 10 10 9 9 9 8 7 6 5 2 2 3 3 5 5 6 6 5 7 5 3 6 4 4 4 5 6 7 7
5 7 6 7 6 6 9 8 9 7 9 10 7 5 4 8 10 9 13 15 7 3 4 8 7 7 8 8 8 7 7 6 7 7 8 7 8 8 8 8 9 8 8 9 11 12 12 12 12 11 10 10 10 11 10 11 10 10 9 10 10 10 10 9 8 6 5 4 2 2 2 2 4 5 6 5 4 6 5 5 6 5 4 7 7 6 6
3 4 6 4 7 12 11 8 10 10 7 7 3 3 3 2 9 10 12 9 5 5 7 8 8 8 8 8 6 6 7 7 6 7 7 7 7 8 8 7 8 9 9 10 10 10 10 10 11 10 10 9 10 11 10 11 10 10 10 10 10 10 10 10 9 8 7 4 3 1 3 4 3 4 4 6 6 7 6 6 5 4 6 7 7 6 5
0 2 3 4 3 6 5 4 5 5 6 6 6 5 6 2 12 15 12 9 4 7 6 11 8 9 8 7 5 7 8 8 7 8 7 6 6 7 7 8 9 9 9 8 8 8 8 8 9 9 9 9 10 9 10 10 9 10 10 10 10 11 10 10 10 8 7 6 4 4 4 2 2 5 5 6 6 7 7 5 5 6 6 7 7 6 6
3 2 6 2 5 4 3 2 4 3 1 3 7 4 5 7 5 2 5 8 9 8 6 9 8 8 6 5 7 8 6 6 6 7 6 6 5 6 7 7 7 7 7 7 7 7 7 7 7 6 7 8 7 7 8 9 10 10 10 10 10 10 11 11 10 10 8 8 7 5 4 4 5 6 7 8 8 7 6 7 6 7 7 9 7 8 7
4 1 3 5 3 4 1 3 4 5 9 10 12 9 8 8 10 12 13 11 9 7 7 8 10 10 9 10 11 9 8 6 5 6 6 6 6 6 6 7 7 7 7 7 8 9 9 8 7 8 9 8 7 8 9 10 10 10 10 11 11 11 11 11 11 10 10 8 7 7 6 6 7 7 8 8 10 8 7 7 6 6 8 8 8 7 8
3 2 2 2 2 2 3 2 3 2 3 3 9 9 8 7 4 12 11 10 10 11 10 9 7 9 10 11 10 8 8 7 5 6 6 5 5 5 5 5 6 6 7 7 7 7 6 7 7 8 8 7 7 7 7 9 9 10 10 11 12 11 12 12 11 11 10 9 9 8 7 7 8 8 8 9 10 8 9 8 5 7 8 8 8 8 7
5 3 5 2 2 2 2 1 1 1 2 2 3 5 2 4 3 6 11 10 10 10 9 9 8 7 8 10 7 7 6 7 6 5 5 4 4 4 5 4 4 3 4 5 6 5 6 7 9 8 7 7 7 8 11 10 10 10 10 11 12 12 12 12 11 11 10 9 9 9 9 9 9 8 8 10 9 7 10 8 7 7 10 8 6 6 7
4 6 5 3 0 4 5 1 1 2 1 1 5 3 2 2 6 4 8 12 11 10 9 8 9 3 7 6 3 4 5 5 5 5 4 4 4 5 5 5 5 6 5 5 7 7 7 9 9 7 6 7 8 10 10 9 10 10 11 12 10 10 11 10 10 10 10 10 9 10 10 9 8 8 6 7 10 9 11 9 8 6 10 8 8 8 8
4 3 5 4 5 3 1 5 3 1 1 3 3 3 2 3 7 6 8 10 9 9 12 9 5 2 3 3 3 1 2 4 4 4 3 3 3 4 5 6 7 7 5 4 7 9 8 11 9 7 6 7 10 10 10 10 9 10 10 10 11 10 10 9 9 10 10 10 9 9 11 10 8 8 8 7 7 10 10 11 6 7 9 9 8 8 8
1 5 4 3 2 1 2 2 2 2 1 2 1 1 4 7 9 9 9 10 11 9 7 6 2 1 3 5 5 2 2 2 3 3 4 4 5 5 5 6 5 4 5 10 12 11 11 9 7 7 6 8 11 9 9 8 10 11 11 10 9 8 9 9 9 10 10 10 10 10 10 10 9 8 7 7 7 8 9 8 6 8 9 9 11 9 8
3 6 0 2 2 2 1 1 3 4 2 1 2 4 2 7 9 9 8 10 10 9 8 4 2 1 1 5 7 4 4 5 5 4 3 2 3 4 5 5 5 6 7 7 7 8 7 7 7 6 6 9 10 8 8 10 11 10 8 8 8 9 9 11 11 12 10 10 11 10 9 9 9 9 8 8 7 6 8 10 8 10 11 9 10 10 9
3 2 5 2 2 2 1 2 3 3 1 3 4 0 1 9 9 8 8 10 7 6 5 4 5 7 8 9 6 6 5 5 4 4 3 4 5 4 3 5 5 6 6 7 9 9 8 8 7 7 7 10 8 8 9 11 9 7 8 8 8 9 11 11 10 11 11 10 10 10 9 9 9 10 9 9 8 7 6 7 11 11 9 8 9 9 8
3 4 5 2 1 1 3 4 2 0 1 1 2 6 5 5 8 10 8 8 8 9 8 8 8 9 8 8 7 6 4 5 5 4 3 5 5 6 7 8 8 6 6 8 9 8 8 8 7 7 9 10 8 8 11 8 6 7 7 8 8 10 11 12 11 12 12 13 10 9 10 9 10 10 8 9 9 9 8 8 11 11 8 7 8 8 8
5 2 3 3 0 0 1 1 3 0 1 1 2 4 8 4 6 9 8 6 7 10 12 10 8 7 8 7 7 7 6 4 4 4 4 4 6 6 6 6 6 6 6 7 8 8 8 8 8 8 8 8 8 10 10 6 6 7 8 8 8 10 10 10 11 11 10 11 10 10 10 9 9 10 10 10 10 9 8 8 8 9 7 7 8 9 8
2 2 2 2 4 4 1 1 2 4 4 4 4 5 5 9 4 4 8 9 8 11 12 10 10 9 6 7 6 7 5 5 5 6 5 5 5 6 7 7 6 5 6 7 8 9 9 9 8 8 7 8 9 11 7 7 7 8 8 9 10 10 10 10 10 9 10 10 10 10 10 10 10 9 9 9 9 7 8 8 8 8 8 7 8 7 7
4 5 4 1 4 5 6 7 5 5 6 7 6 7 9 5 5 5 10 10 11 10 10 13 7 8 8 9 8 7 7 6 6 6 6 7 6 7 7 7 7 5 6 8 9 9 10 10 8 7 8 8 9 5 5 7 7 7 8 10 10 9 9 9 9 8 9 9 10 11 11 10 10 8 8 8 8 7 8 8 8 8 7 7 7 7 6
2 3 3 4 5 6 7 8 8 7 7 6 6 8 8 8 8 9 9 11 12 10 9 12 12 10 8 9 7 7 7 7 6 5 6 6 6 7 7 6 5 7 7 8 9 9 9 8 7 8 8 8 6 6 6 6 7 8 9 9 9 9 8 8 8 9 10 8 8 8 10 9 8 7 8 7 8 8 7 7 7 7 7 6 6 6 6
2 4 3 6 7 7 5 4 7 7 8 8 7 8 9 10 10 11 10 10 11 10 10 10 11 10 8 9 7 6 5 4 3 3 4 4 4 5 5 6 6 6 7 7 8 9 8 7 6 7 7 7 7 6 6 5 6 9 9 9 8 8 8 7 7 7 8 9 9 8 9 8 9 9 8 8 9 9 8 6 6 7 6 7 6 5 4
7 8 7 8 9 9 8 7 7 6 7 9 9 10 12 12 13 11 10 9 9 10 10 10 11 10 8 8 8 7 4 3 2 1 1 2 2 3 4 4 4 5 4 6 6 7 6 5 6 7 7 7 7 7 6 5 5 8 7 8 8 8 7 7 7 7 7 7 7 7 8 10 8 7 7 7 7 8 7 5 5 4 6 5 4 4 3
5 5 7 9 7 4 4 6 7 8 8 11 11 11 12 10 11 11 13 11 9 9 8 9 9 11 8 6 4 5 3 2 0 1 3 2 2 2 2 3 4 5 5 5 6 6 6 6 6 6 6 6 6 6 6 5 5 7 7 7 7 7 6 6 6 6 6 6 6 7 7 7 8 9 10 11 8 7 6 9 12 10 6 4 2 3 4
6 4 7 3 7 9 6 8 8 8 8 10 12 11 10 10 9 10 12 13 11 9 7 6 9 8 7 5 3 3 2 1 2 2 0 2 2 2 2 4 5 5 4 4 5 7 6 6 7 7 7 8 7 7 6 5 5 5 5 6 6 6 6 6 6 5 5 5 5 6 6 6 6 6 6 8 11 12 11 10 11 11 11 10 10 9 6
7 8 7 7 7 8 9 9 9 8 7 10 12 10 10 9 9 9 10 11 13 10 8 5 4 7 5 3 2 1 1 1 2 3 3 3 2 2 2 4 4 5 5 5 5 4 4 5 6 6 7 8 8 7 7 5 5 6 6 6 5 5 4 4 5 5 5 5 5 5 5 5 5 5 6 6 6 8 11 12 13 14 13 13 12 11 11
7 7 8 9 13 12 10 10 9 8 7 8 10 10 12 12 9 9 10 9 8 9 8 6 3 3 4 3 1 1 2 2 3 4 3 3 3 3 3 5 5 4 3 3 3 3 4 6 6 6 7 7 7 7 7 6 6 7 6 6 5 4 4 4 4 5 5 5 5 4 4 5 5 5 5 5 6 5 6 8 11 13 14 14 12 12 12
13 12 12 12 12 10 9 11 10 8 7 8 9 9 8 8 11 9 6 4 5 4 5 4 3 1 3 4 3 3 4 4 2 3 4 4 3 4 6 4 3 3 3 3 4 4 5 6 6 7 8 7 7 6 5 5 7 7 6 6 5 5 4 4 5 4 4 4 4 4 4 4 4 5 4 4 4 4 5 6 7 7 10 13 13 11 12
12 13 16 15 13 10 6 8 9 8 7 6 8 8 7 7 8 7 5 3 3 3 4 4 3 3 3 4 4 4 6 3 3 4 4 5 5 4 3 2 2 4 4 4 4 5 6 6 7 7 7 6 5 5 4 5 7 7 6 6 6 7 8 6 5 5 4 4 4 4 4 4 5 5 5 5 5 5 5 5 5 5 5 6 8 11 8
9 5 3 12 13 10 8 9 8 7 7 7 8 8 7 8 8 8 7 6 5 4 4 3 6 6 5 3 6 5 5 6 5 4 5 5 3 3 4 3 2 3 4 5 4 4 5 5 6 7 7 5 4 3 3 5 7 6 5 5 6 6 6 6 6 5 5 5 4 4 4 4 4 5 5 5 6 5 4 4 4 4 4 4 3 4 9
7 9 9 9 8 8 9 9 10 8 7 5 7 7 7 8 7 8 7 6 5 5 5 4 3 3 6 3 4 6 5 4 4 4 3 3 3 3 3 3 3 4 5 5 4 4 5 5 6 6 6 5 4 4 4 6 6 6 6 5 5 6 6 5 4 4 4 4 5 5 4 3 4 4 4 4 4 4 4 4 4 3 3 3 4 4 5
8 9 10 10 10 9 11 9 9 8 7 6 8 6 7 9 8 6 6 5 5 6 3 3 4 3 3 5 3 6 6 5 4 2 3 3 3 3 2 2 4 4 5 5 4 3 4 4 5 5 5 5 4 3 5 5 5 5 5 5 5 4 4 3 4 4 5 5 5 5 5 5 4 5 5 5 5 5 5 4 4 3 4 3 3 4 4
8 8 8 9 9 8 9 8 8 7 7 7 7 7 6 8 7 6 5 4 4 5 2 4 4 4 4 4 4 4 5 4 3 3 3 3 4 3 3 1 5 4 3 1 1 2 3 4 4 4 4 3 3 4 5 5 4 4 5 5 5 5 6 6 5 5 4 4 5 5 5 5 5 5 5 5 5 5 5 3 3 3 4 4 4 4 4
11 9 8 7 8 9 7 6 8 7 6 7 9 9 8 9 7 7 5 5 4 5 5 4 5 5 4 4 5 6 5 4 4 4 4 4 4 3 3 3 3 3 1 1 0 1 2 4 4 3 3 3 3 4 5 5 5 6 5 3 5 4 5 6 5 5 4 4 4 5 4 4 4 4 5 5 4 3 4 3 3 3 2 3 4 4 4
12 11 7 6 8 8 6 4 7 6 5 6 6 4 3 4 5 5 5 5 4 3 4 5 4 4 4 5 5 5 5 4 4 3 4 4 3 3 3 2 0 0 0 0 0 1 1 2 1 3 2 2 3 4 4 4 4 5 3 4 4 4 4 4 4 4 5 5 4 3 3 2 1 3 4 3 2 2 2 3 2 2 3 4 3 4 4
7 7 8 7 7 9 9 5 5 6 4 3 3 4 5 4 5 5 5 3 4 4 5 5 4 4 4 5 5 5 4 4 4 3 2 3 3 4 4 3 1 1 1 1 0 1 0 1 2 2 2 2 3 3 3 3 4 4 3 3 4 4 4 4 4 5 5 4 3 3 2 0 1 1 4 4 2 1 3 2 3 3 2 4 3 3 5
6 5 6 6 6 7 7 8 6 6 6 6 3 3 3 4 4 4 4 4 4 3 4 5 5 5 5 5 5 3 3 4 4 3 1 2 3 4 3 2 2 2 2 2 1 0 0 0 1 1 2 2 2 3 2 3 3 4 3 4 4 4 3 3 4 5 4 1 1 3 2 4 4 4 4 2 1 0 0 1 3 3 2 2 2 3 4
6 6 4 4 5 6 6 7 6 6 6 5 5 5 4 4 4 5 5 4 4 5 5 5 5 5 5 5 4 3 3 3 3 1 1 2 3 3 3 4 3 3 3 2 2 1 0 0 0 1 1 1 1 2 4 3 3 3 3 4 4 3 4 4 3 4 3 2 3 3 2 2 3 3 1 3 3 1 1 0 1 2 1 1 0 1 1
6 8 5 5 4 5 5 5 6 6 6 6 6 5 4 4 4 3 4 5 5 5 6 6 5 5 5 3 2 2 2 3 3 2 1 1 2 2 3 2 4 3 2 1 0 1 1 0 0 1 1 1 1 3 3 4 4 3 3 4 5 5 5 4 3 2 2 1 0 2 3 4 4 5 2 1 1 3 1 0 1 0 1 0 3 1 2
2 6 9 7 6 5 4 4 4 6 6 4 1 1 4 6 4 5 5 5 5 4 4 5 5 4 4 2 2 3 2 1 1 1 0 0 0 1 2 1 0 0 1 1 0 0 1 0 2 1 0 1 0 0 1 2 2 3 3 4 4 4 4 3 4 3 4 3 2 2 2 2 2 4 5 3 1 2 2 2 2 2 2 1 1 2 3
4 2 3 4 4 5 5 3 3 4 6 7 4 4 3 4 4 5 5 4 4 4 5 5 5 5 4 4 4 2 2 3 3 3 1 1 0 0 2 3 4 6 4 1 1 1 0 0 2 2 1 1 1 1 0 0 2 3 3 3 4 4 3 3 4 2 3 3 2 2 2 2 2 4 4 4 2 2 3 3 3 3 4 3 3 3 3
5 6 7 7 6 5 6 5 4 4 3 5 9 6 5 6 4 5 4 4 2 2 4 5 6 6 5 4 4 4 3 2 3 3 2 1 1 1 4 5 5 6 6 5 4 4 3 3 2 2 2 1 1 1 0 1 1 1 2 4 4 4 4 4 4 5 4 2 2 3 4 4 4 4 4 4 5 3 2 3 3 3 3 4 4 4 4
8 7 5 7 7 6 7 7 5 4 4 4 4 5 5 7 6 6 5 6 5 4 4 5 5 4 4 4 3 1 0 1 3 3 3 2 0 1 1 4 3 2 3 5 5 4 3 3 2 2 3 1 1 1 1 2 1 0 0 1 2 3 4 4 4 4 4 4 4 3 4 4 5 5 5 4 4 5 4 4 4 4 4 5 5 4 4
6 6 6 7 7 6 5 5 6 4 2 3 3 5 6 6 9 9 7 5 5 4 4 4 4 4 4 3 1 0 1 1 2 3 4 5 4 3 1 5 3 2 3 4 3 3 2 2 2 3 3 2 2 3 3 1 1 1 1 1 0 0 1 2 4 4 3 3 3 2 2 1 2 3 4 4 4 5 5 5 4 5 4 5 5 5 5
9 9 8 8 6 6 6 7 8 8 6 4 4 5 6 5 3 3 4 5 6 5 5 4 4 2 3 3 2 2 3 1 2 3 3 5 4 4 6 6 2 2 2 1 2 2 4 4 4 4 4 3 3 3 2 1 1 2 2 1 1 1 1 2 3 4 4 2 3 3 3 4 4 4 4 4 4 4 4 5 5 6 6 5 5 5 6
9 8 8 8 7 7 6 5 5 5 6 6 5 4 5 5 5 6 7 7 6 5 6 5 4 4 3 2 2 3 4 3 4 4 3 6 6 6 8 8 8 6 6 3 3 4 5 5 5 5 5 6 5 4 2 2 2 2 4 3 2 2 2 3 3 3 4 3 4 4 4 3 3 4 4 4 3 5 4 5 5 5 5 5 5 5 5
9 8 9 9 7 6 6 6 7 9 7 4 5 5 5 5 5 5 6 7 7 7 5 5 5 5 4 4 5 7 6 5 5 6 3 3 3 6 2 6 7 6 6 6 5 5 5 5 6 6 5 6 5 4 2 3 4 4 4 4 4 4 4 3 4 4 3 4 5 4 4 4 4 4 4 4 4 4 4 5 6 6 5 6 5 4 4
7 6 6 8 8 8 9 9 6 4 5 5 4 3 4 5 6 5 5 6 6 7 8 7 6 6 6 6 6 4 2 2 3 6 6 6 5 4 1 3 4 4 6 7 5 6 6 7 7 6 6 5 4 2 3 3 4 4 4 5 5 5 5 5 4 4 4 4 4 4 4 5 5 5 4 4 4 4 5 5 5 5 5 5 5 4 4
7 6 8 8 8 6 5 4 5 5 5 5 5 5 6 5 5 6 6 6 5 4 4 4 5 6 5 6 6 5 4 5 6 5 7 6 6 6 6 4 4 4 5 6 6 7 6 6 6 6 4 4 4 3 3 4 4 4 5 5 5 5 5 5 4 4 4 4 4 5 5 5 5 5 5 5 5 3 3 4 3 4 5 4 4 4 4
9 8 7 7 7 5 5 6 7 7 7 9 8 7 5 4 4 2 1 3 3 2 3 4 5 4 4 4 5 5 6 5 2 6 4 6 6 5 5 5 5 5 6 5 6 5 5 5 4 5 5 5 3 3 3 4 4 4 5 5 5 5 5 5 5 5 5 4 4 4 5 5 5 5 5 5 5 4 3 3 4 4 3 3 3 3 4
8 9 6 5 6 7 8 7 7 7 8 4 4 4 4 4 3 3 3 3 3 3 3 2 2 3 3 5 6 6 6 4 6 4 2 5 5 5 5 4 5 6 5 5 5 5 4 5 5 5 5 5 4 4 4 4 4 4 5 5 5 5 5 5 5 5 4 5 5 5 5 5 5 5 5 5 5 4 5 5 4 4 4 3 3 5 4
6 7 6 6 6 6 7 7 7 8 6 5 6 4 4 4 4 4 4 4 5 3 2 1 0 1 2 2 3 3 3 4 5 5 3 2 2 2 1 1 1 3 4 4 3 2 2 4 5 5 4 4 4 4 4 4 4 4 4 5 5 5 5 6 4 5 5 5 5 5 5 5 5 5 5 5 4 4 4 5 5 6 7 4 4 3 3
7 8 7 8 8 8 8 9 8 7 7 7 6 6 6 7 6 6 7 6 5 5 3 1 0 0 0 0 0 0 0 2 3 3 2 3 1 2 2 2 2 3 3 3 3 3 1 2 1 1 2 2 2 2 3 3 4 4 4 5 5 5 5 5 5 5 5 5 5 5 5 5 5 5 5 4 4 5 5 6 6 5 4 4 3 3 3
10 8 8 7 7 5 4 1 1 3 4 5 6 6 6 5 6 5 3 5 6 7 6 5 2 1 0 1 1 1 2 1 1 1 2 1 0 0 0 2 1 2 2 3 2 2 2 3 2 2 2 1 2 2 3 4 4 3 5 5 4 5 5 5 4 5 4 5 4 5 5 5 5 4 5 5 5 6 6 5 5 4 4 3 4 4 4
Wind_Direction
37 29 66 96 76 65 81 76 61 40 356 84 126 206 215 155 157 187 186 179 152 151 148 140 133 126 139 128 113 96 90 77 66 58 47 37 31 25 22 17 6 3 3 1 4 7 10 12 10 6 5 2 358 355 357 352 349 350 343 341 343 348 353 346 339 318 303 294 205 186 166 150 142 144 141 120 111 116 127 87 21 66 133 167 112 93 75
39 17 14 33 105 109 60 40 48 65 70 63 93 107 154 146 225 157 142 138 104 74 122 120 116 104 103 100 104 95 83 71 59 58 45 31 29 25 22 11 5 358 357 1 6 10 11 8 4 3 2 0 358 360 357 352 351 347 347 351 354 358 1 349 341 339 321 301 226 192 171 152 145 137 131 128 130 112 83 107 132 132 133 102 94 101 101
17 6 24 38 73 104 81 30 24 48 76 69 50 89 96 93 71 102 123 121 106 45 82 98 98 93 100 85 76 85 80 66 64 60 46 30 32 23 16 10 1 355 357 3 11 13 8 4 3 3 360 356 356 0 357 354 350 347 352 359 1 1 358 349 344 351 352 322 286 190 189 120 107 110 114 115 121 107 99 107 126 125 130 101 94 93 97
355 335 32 39 77 83 84 47 15 14 30 67 350 42 315 142 133 121 110 122 157 165 116 95 88 89 86 88 81 73 67 63 62 63 52 33 26 22 12 9 9 2 4 6 6 4 3 5 2 2 356 354 1 360 354 356 350 350 2 5 6 3 359 358 358 1 360 347 338 11 45 66 89 81 88 103 99 90 90 97 94 99 87 89 85 74 79
275 275 26 355 21 66 39 1 326 351 53 85 75 21 13 358 138 133 163 180 91 126 128 106 84 88 86 78 76 83 75 66 64 63 54 37 23 19 12 15 16 8 5 1 358 2 3 4 357 351 350 2 4 355 356 353 355 1 2 8 8 8 1 3 1 359 14 6 7 26 52 41 54 79 70 68 71 85 92 79 76 75 83 81 75 64 65
182 294 343 352 72 140 215 329 293 259 358 89 73 37 16 26 37 75 57 102 113 108 107 108 116 92 79 87 64 58 66 75 66 58 49 38 21 16 12 15 21 6 8 7 2 359 2 1 358 347 360 8 0 358 359 3 8 3 7 9 12 8 6 3 4 7 8 17 10 25 46 56 58 64 72 68 64 58 62 68 74 95 74 73 65 65 61
156 339 19 70 171 228 284 305 42 84 99 95 86 71 59 74 99 98 97 101 95 85 82 92 99 102 95 74 64 53 48 53 58 60 47 35 24 21 7 12 13 11 8 11 7 5 1 355 360 6 9 4 359 15 9 15 10 9 11 13 12 8 10 4 5 11 14 15 20 22 35 69 78 72 69 70 69 61 59 67 58 60 78 75 69 66 60
74 65 33 135 244 258 331 355 345 29 84 80 93 59 35 27 70 118 109 104 104 107 104 96 96 101 93 75 58 49 50 44 43 55 52 28 19 26 11 19 14 6 11 21 9 354 346 2 13 15 4 350 12 13 16 23 13 15 15 18 13 8 10 7 6 6 14 22 25 27 43 51 64 71 72 78 78 74 74 60 42 80 65 70 70 69 64
131 151 103 144 301 320 86 138 255 15 172 227 156 129 31 54 30 121 122 116 112 113 114 114 116 110 85 70 44 30 42 47 42 52 51 35 11 6 10 11 16 358 17 31 18 11 9 16 23 12 352 2 19 24 28 15 15 15 18 23 15 8 10 7 7 7 11 22 32 34 33 45 52 59 76 79 76 76 73 64 50 49 74 61 58 62 62
117 130 105 100 146 222 205 155 23 190 232 257 287 81 101 91 81 106 133 133 133 125 124 132 143 174 79 67 45 21 29 47 58 45 47 45 35 20 7 5 18 19 18 32 37 34 17 27 23 0 358 11 28 35 30 21 19 13 18 21 13 11 8 2 7 10 13 20 32 42 46 46 51 53 47 77 82 78 79 71 63 44 67 57 50 57 62
77 82 129 184 180 223 75 181 201 106 316 284 304 58 149 163 136 139 135 122 133 141 147 154 156 107 139 160 163 136 43 40 47 66 45 35 33 27 23 17 16 11 3 31 45 35 19 31 9 357 4 22 37 35 28 22 20 18 19 15 14 10 3 1 11 14 16 23 30 44 53 50 46 57 54 60 86 91 94 89 68 76 68 61 45 44 47
101 137 97 180 212 218 198 200 276 286 337 3 350 128 242 163 157 143 141 136 141 153 147 137 135 207 170 173 171 136 82 70 43 47 45 30 21 22 12 16 6 352 4 36 36 31 24 12 355 3 11 36 39 32 26 21 24 20 15 11 5 9 12 14 18 21 19 25 31 38 54 54 47 47 46 50 39 82 85 79 82 73 70 68 60 37 30
91 91 213 2 319 293 290 203 328 316 246 334 109 197 228 148 145 150 149 149 149 146 144 150 125 318 331 111 124 123 121 88 58 43 39 39 33 29 23 17 3 23 25 33 35 30 20 8 5 3 22 45 38 26 22 30 25 11 4 7 14 22 24 24 24 26 20 27 35 39 41 57 55 44 41 43 37 26 78 88 70 70 69 66 64 55 37
117 180 107 189 244 241 331 323 289 287 77 127 221 210 350 141 135 132 137 134 129 118 106 95 100 103 96 101 104 99 89 94 83 53 35 42 35 22 25 28 25 28 34 34 30 26 16 13 12 11 28 46 39 30 31 31 16 5 7 9 19 32 35 31 26 26 22 24 38 41 41 46 57 56 43 45 37 40 30 72 84 70 65 65 70 62 50
65 37 71 23 195 217 80 315 10 349 177 277 112 119 51 107 127 129 127 122 117 110 98 101 108 107 98 97 98 94 84 79 72 51 33 39 34 19 14 15 11 16 28 30 33 25 12 14 19 20 34 43 33 35 40 17 5 21 21 18 24 37 39 38 33 30 28 29 32 41 45 45 53 56 47 45 42 34 42 47 69 71 59 56 67 67 57
141 119 146 198 275 272 284 346 170 22 351 125 125 116 115 69 110 123 111 98 115 118 121 122 108 103 106 96 96 89 76 66 56 46 30 31 39 30 23 23 11 19 32 31 36 28 22 20 22 23 33 41 32 40 33 359 17 35 36 29 34 42 40 37 38 34 25 32 30 36 39 42 55 59 53 50 45 41 39 46 57 64 53 50 55 56 55
123 187 191 242 232 240 287 173 84 54 69 69 76 75 92 125 87 105 109 117 117 122 121 114 118 110 100 105 100 95 84 67 49 48 37 26 42 45 30 17 11 24 33 37 38 36 27 24 25 29 30 43 37 37 18 18 20 33 40 39 41 42 44 40 39 40 43 38 37 35 40 40 42 45 50 51 57 40 47 51 53 58 51 46 53 51 50
132 81 30 24 102 99 76 59 62 76 76 68 79 99 102 51 91 112 125 125 123 125 126 116 102 107 115 103 95 87 75 68 51 40 35 29 28 43 41 25 11 22 41 43 41 37 27 19 21 25 30 37 45 25 22 32 29 35 44 48 44 41 44 48 41 35 48 41 39 42 44 46 48 39 46 48 59 51 50 49 49 55 51 50 48 46 47
113 63 3 68 94 95 88 86 76 69 67 73 87 92 91 105 104 100 109 122 125 125 120 115 118 114 109 98 89 84 82 78 68 57 49 30 25 29 31 20 25 35 38 38 34 34 29 8 14 19 28 29 27 17 30 38 50 50 47 49 50 43 41 47 48 49 52 47 51 44 45 48 47 42 45 49 50 48 48 50 50 48 44 46 48 43 37
76 131 119 94 80 76 75 81 98 88 85 83 78 94 101 105 104 108 111 109 106 111 108 112 110 110 108 109 108 104 106 102 85 71 64 54 26 14 21 23 32 45 44 45 37 34 24 4 13 23 28 26 17 16 15 18 55 59 55 50 52 45 42 46 47 49 57 50 54 55 49 48 48 42 42 48 54 47 38 31 47 45 42 37 31 30 27
94 96 98 112 91 70 72 80 79 91 105 101 99 101 104 107 107 106 102 100 112 112 114 114 114 112 113 118 125 125 123 120 107 79 7 354 12 11 26 22 41 58 53 53 44 41 21 5 20 27 23 19 15 16 8 5 38 70 63 58 58 52 47 48 44 44 55 58 59 62 62 59 55 50 44 43 60 65 45 34 44 66 70 55 33 1 350
168 179 171 161 131 137 105 102 106 104 106 110 106 103 101 105 109 112 111 104 97 103 111 117 119 121 128 132 138 138 140 127 43 347 338 344 23 47 46 55 58 57 50 52 46 35 13 3 20 26 23 17 14 15 14 18 30 67 64 57 52 46 44 49 45 45 42 44 50 60 66 70 73 66 52 57 52 63 54 38 51 50 61 60 351 322 351
176 141 142 61 77 92 107 113 113 113 118 114 111 107 109 108 109 117 117 117 114 110 109 113 123 129 135 139 123 107 84 336 314 309 349 72 71 59 57 81 54 57 41 39 47 36 8 8 24 20 20 14 14 11 18 28 44 57 66 69 57 44 42 40 32 41 51 53 42 51 56 69 71 76 71 48 51 58 62 60 56 51 52 51 45 42 41
68 102 116 120 115 122 128 119 115 116 116 111 108 107 101 105 110 114 114 120 124 125 124 119 123 131 125 114 101 112 1 22 96 76 70 79 94 93 65 91 83 69 55 50 51 25 4 28 31 27 26 18 11 6 10 23 45 59 54 69 67 50 46 38 35 38 40 42 47 60 55 55 61 72 68 69 45 38 48 53 50 47 42 38 37 39 41
137 126 110 108 108 109 114 114 107 104 111 113 114 118 122 116 102 100 107 112 116 126 132 133 129 136 137 147 130 161 136 66 65 81 76 70 56 62 48 64 72 90 88 74 45 31 37 34 30 29 34 15 10 11 11 19 45 54 46 54 57 48 45 44 48 43 46 47 40 41 51 56 55 57 69 69 64 36 11 25 47 52 42 34 31 36 40
111 110 109 105 99 103 113 108 100 102 102 107 106 103 99 101 109 107 100 110 118 121 127 141 149 171 143 138 131 134 92 77 52 64 79 74 53 44 39 54 94 100 86 61 45 40 40 33 32 31 31 13 8 5 8 34 54 58 51 48 46 42 39 39 52 42 36 41 55 56 48 57 59 64 57 62 68 55 38 16 8 17 30 28 24 26 35
105 118 117 101 99 110 116 117 130 131 115 105 108 102 96 94 89 96 103 99 109 130 150 162 139 124 94 109 115 103 120 130 69 58 68 58 45 22 10 17 82 104 99 75 53 39 43 36 33 32 27 11 2 5 17 46 59 54 48 46 47 43 39 45 58 51 36 34 42 50 53 55 61 65 59 49 55 50 53 53 48 37 9 3 17 32 37
107 87 71 125 137 134 124 115 114 111 111 111 110 109 112 112 115 112 111 107 88 78 67 100 130 120 109 125 115 95 75 77 75 53 51 33 3 9 22 31 36 70 72 67 54 43 45 40 35 34 20 4 10 24 36 58 65 59 53 53 53 52 43 41 45 44 37 34 34 46 52 49 56 65 57 50 48 49 48 54 53 43 25 13 355 17 46
76 87 82 82 93 102 101 104 103 101 96 91 102 112 116 113 114 115 114 115 122 103 89 61 49 94 128 146 117 107 99 92 81 63 36 6 22 15 25 51 61 60 65 59 44 37 49 41 35 33 15 352 1 25 47 62 59 57 52 48 54 50 46 41 51 59 52 47 42 49 59 63 68 73 61 52 48 49 48 48 42 31 26 352 359 8 27
88 84 92 99 99 103 109 107 111 110 108 113 105 101 113 112 104 104 111 111 110 110 136 136 105 89 107 111 104 124 125 125 126 107 50 36 26 15 13 45 72 51 48 46 32 30 56 46 39 32 2 343 356 27 56 64 59 59 61 57 62 57 49 43 56 52 55 46 33 45 51 56 54 68 59 49 45 41 43 35 31 30 20 3 22 46 32
78 77 85 95 95 95 103 112 106 107 109 106 106 101 93 100 109 108 116 115 103 116 145 120 111 104 92 112 103 96 103 103 100 90 68 52 46 36 26 70 108 114 125 139 7 28 63 51 42 21 340 339 17 44 61 62 64 58 54 56 63 55 52 47 48 54 53 48 33 46 42 45 43 54 57 50 37 35 27 21 23 25 358 9 26 28 8
99 91 89 88 99 104 99 100 107 115 124 123 119 126 135 127 131 138 140 128 144 145 131 111 112 118 121 111 107 105 104 101 89 69 52 45 43 35 33 50 102 147 203 252 299 25 49 60 42 354 329 358 38 46 57 56 51 53 43 47 60 56 58 68 65 56 62 64 59 49 27 42 34 44 59 53 49 41 20 26 17 14 31 27 12 353 339
117 113 105 109 104 104 109 119 122 125 127 124 130 138 122 113 124 133 141 141 126 110 104 106 112 115 116 110 105 101 99 98 90 77 58 41 20 14 17 13 84 185 281 277 243 201 137 64 345 319 348 21 51 57 61 67 73 73 60 69 69 55 52 53 80 74 58 56 58 76 98 98 87 91 103 100 59 52 32 24 18 18 35 45 12 348 352
138 145 149 152 139 138 135 128 117 104 79 78 116 128 123 128 132 134 138 135 110 105 117 131 125 116 106 110 112 117 110 87 78 74 58 36 16 352 348 343 332 344 305 309 58 129 216 273 299 334 339 360 48 61 67 66 68 76 78 83 69 58 56 56 62 77 74 50 25 359 353 19 115 161 133 132 102 44 43 15 19 19 35 42 31 7 41
130 135 138 139 130 132 134 136 139 128 125 113 94 92 126 143 134 138 134 122 135 155 140 118 121 122 120 109 102 93 108 142 165 151 91 33 358 339 322 347 26 35 20 6 16 337 224 247 284 345 13 351 16 30 33 59 82 70 58 76 82 86 64 25 60 75 96 108 102 68 42 13 336 351 29 47 39 338 46 324 12 34 5 41 36 30 47
107 99 97 112 126 136 136 143 148 146 141 141 151 157 160 158 137 130 131 143 141 125 131 129 123 113 108 116 122 137 139 166 161 154 28 7 337 326 22 47 46 52 30 46 45 31 306 314 80 54 31 351 346 24 18 10 31 57 46 48 57 62 82 93 94 98 82 83 27 17 5 329 314 317 77 107 113 68 254 251 33 61 39 328 323 54 36
144 142 149 139 132 131 137 146 150 140 136 142 146 142 135 130 129 130 119 125 141 151 137 124 105 116 155 181 176 167 148 163 169 159 163 296 308 37 43 45 52 60 59 67 311 9 4 11 2 52 39 349 329 14 352 7 34 24 60 56 41 27 34 43 16 42 59 70 23 360 353 8 349 336 20 115 123 137 153 216 216 58 100 26 310 296 153
163 152 154 153 156 151 147 142 132 119 111 105 110 133 141 138 134 134 143 143 144 140 131 123 135 142 130 105 99 127 164 190 188 182 223 287 338 40 14 35 295 104 83 236 234 337 63 158 204 167 15 329 42 29 333 358 348 5 60 66 71 61 36 27 37 15 6 16 350 11 345 350 320 313 325 310 203 127 162 220 240 237 241 201 191 251 269
91 49 81 109 115 120 113 113 117 125 139 143 132 99 86 102 120 124 130 142 143 136 126 119 118 115 124 132 161 193 221 213 192 167 174 219 228 143 264 236 216 197 200 196 173 226 291 53 149 159 225 292 309 313 124 299 14 50 65 60 43 54 45 23 10 21 38 2 330 294 248 238 257 295 317 320 353 134 186 204 216 240 260 256 249 249 226
136 146 151 138 137 142 136 145 150 152 159 147 141 153 152 131 139 129 129 139 164 157 140 132 135 146 171 170 165 194 224 187 163 163 177 166 114 350 319 302 256 234 237 239 243 248 232 218 158 152 208 235 261 270 187 201 166 98 85 67 51 27 22 10 14 10 358 360 14 2 356 357 339 323 303 298 303 273 213 220 219 229 241 252 247 243 242
148 142 146 140 144 147 148 142 154 164 154 155 163 143 141 145 141 135 161 173 179 163 156 162 156 171 183 185 181 191 136 147 152 164 159 122 303 333 348 283 273 257 214 209 213 229 226 209 175 195 229 209 230 222 194 184 172 145 105 93 70 44 14 5 359 340 328 328 343 359 8 2 342 325 315 312 293 294 276 252 241 227 221 231 238 235 230
148 139 138 139 143 154 154 139 125 123 174 207 176 141 150 156 161 176 176 150 152 170 175 199 199 182 178 157 154 207 284 167 154 165 174 186 209 193 227 268 261 260 225 199 207 208 221 200 185 206 223 206 208 227 215 188 182 186 163 156 116 102 8 323 321 310 305 284 280 285 307 325 294 305 308 302 306 296 288 280 273 261 242 228 232 232 228
147 150 152 152 148 141 139 151 161 170 175 191 184 173 167 164 133 96 118 148 165 176 196 203 208 195 155 154 154 220 258 231 197 204 233 256 231 200 202 235 244 257 208 191 183 194 215 212 196 207 215 208 227 237 213 191 198 209 222 205 176 183 219 258 299 322 328 317 306 303 301 328 350 333 324 314 299 289 283 276 269 267 261 238 221 225 229
156 154 151 150 160 165 158 153 149 143 159 196 194 169 160 170 173 159 158 163 176 190 187 202 200 217 206 160 156 215 254 231 224 212 225 291 310 251 220 235 249 231 203 197 197 211 225 220 212 210 206 216 227 234 238 234 215 229 233 229 227 219 242 286 309 309 299 268 248 262 275 289 288 297 308 307 305 296 279 270 271 271 273 271 247 236 240
158 159 160 162 153 143 148 148 157 178 188 159 151 160 177 183 190 185 169 166 178 191 194 193 196 207 200 188 200 217 220 204 188 153 156 245 294 298 256 210 226 224 210 197 199 212 223 227 224 209 206 209 211 210 210 223 228 230 233 233 232 230 235 245 262 269 267 264 264 261 260 254 250 259 272 285 289 287 288 284 278 278 276 270 265 246 229
156 156 146 135 145 165 181 179 170 136 117 124 151 180 196 194 190 185 184 177 180 193 196 193 191 201 197 204 220 237 271 249 207 206 214 189 180 221 217 182 212 209 197 188 204 210 224 224 221 212 206 194 190 191 212 225 228 228 232 231 231 226 232 237 239 248 239 240 253 253 249 256 260 262 262 266 274 278 285 276 276 279 268 270 272 257 229
147 149 164 168 170 168 148 129 132 124 116 127 155 198 213 199 191 193 199 198 196 195 189 190 204 214 206 197 189 195 244 274 282 236 230 249 260 266 248 233 232 209 188 192 206 212 211 207 213 210 196 193 193 201 217 233 233 236 234 237 234 232 231 235 235 248 259 263 252 245 244 244 247 264 275 279 272 263 266 286 301 299 296 288 272 248 218
155 162 168 163 154 138 123 133 133 144 158 174 187 196 191 174 185 181 164 174 190 188 197 209 215 214 207 207 215 211 188 172 230 291 231 221 234 237 253 240 235 212 208 221 230 241 223 214 194 176 180 186 193 208 216 223 228 227 228 233 234 236 233 235 236 238 242 251 253 262 261 256 249 250 258 269 280 281 281 281 287 295 294 269 263 251 233
166 163 155 139 138 143 151 159 155 161 183 174 154 195 189 165 140 138 148 150 154 172 196 230 248 245 216 209 208 217 216 199 176 219 231 187 204 218 235 228 210 194 194 204 226 238 215 211 216 213 213 213 216 219 219 218 226 230 235 237 238 237 234 229 234 224 224 245 252 251 253 251 256 252 264 269 275 285 295 297 288 280 286 283 275 268 259
138 119 125 138 146 154 158 151 164 181 174 165 185 182 154 126 138 198 189 176 167 161 170 198 312 312 306 278 243 229 215 224 249 255 248 219 211 217 198 179 193 190 198 211 230 232 195 200 213 218 218 216 220 215 214 214 223 232 245 250 252 252 244 241 240 232 232 244 253 247 245 243 247 255 261 271 281 289 291 287 288 288 288 285 275 269 260
147 152 162 169 173 174 171 166 174 172 174 181 169 155 161 171 176 178 176 163 142 146 147 121 336 309 314 318 326 328 281 253 239 250 267 286 269 230 187 180 183 187 196 209 226 236 239 254 272 285 276 259 246 239 230 230 236 243 246 248 244 242 246 244 237 243 240 230 233 239 241 246 246 251 256 255 260 271 278 283 286 284 284 282 280 271 261
162 163 162 157 154 146 147 126 141 178 167 154 143 155 167 150 128 142 165 185 167 163 156 131 179 248 340 342 338 320 334 11 68 80 80 89 101 54 66 168 162 182 182 204 230 229 215 221 228 234 230 227 223 230 240 239 244 250 254 251 250 249 245 247 246 250 257 243 227 234 238 239 238 248 253 251 250 256 266 272 270 272 275 277 276 277 277